• în Republica Moldova
  • Lista ţărilor
  • Pe 7 zile
  • Temperatura apei
  • Hartă satelitară
  • Meteo pe hartă
  • Widget-uri
  • user-avatar
    Intrare

    Meteo pe oră la Canberra

    Astăzi, 24 Noiembrie, Vineri

    Timp Temperatura Precipitaţii Vânt Presiune Umiditate
    00:00 +14°C° 0,2 mm 1 m/s 709 mmHg 90%
    01:00 +14°C° 0,2 mm 1 m/s 709 mmHg 91%
    02:00 +14°C° 0 mm 1 m/s 708 mmHg 91%
    03:00 +13°C° 0 mm 1 m/s 708 mmHg 91%
    04:00 +13°C° 0 mm 1 m/s 708 mmHg 92%
    05:00 +15°C° 0 mm 1 m/s 709 mmHg 83%
    06:00 +18°C° 0 mm 1 m/s 709 mmHg 75%
    07:00 +20°C° 0 mm 1 m/s 710 mmHg 67%
    08:00 +23°C° 0 mm 2 m/s 710 mmHg 57%
    09:00 +25°C° 0 mm 2 m/s 710 mmHg 47%
    10:00 +28°C° 0 mm 3 m/s 710 mmHg 37%
    11:00 +28°C° 0 mm 3 m/s 710 mmHg 37%
    12:00 +28°C° 0 mm 2 m/s 710 mmHg 37%
    13:00 +28°C° 0 mm 2 m/s 710 mmHg 37%
    14:00 +28°C° 0 mm 2 m/s 709 mmHg 39%
    15:00 +27°C° 0 mm 1 m/s 709 mmHg 41%
    16:00 +27°C° 0 mm 1 m/s 709 mmHg 44%
    17:00 +25°C° 0 mm 1 m/s 709 mmHg 50%
    18:00 +23°C° 0 mm 1 m/s 709 mmHg 55%
    19:00 +21°C° 0 mm 1 m/s 709 mmHg 61%
    20:00 +20°C° 0,1 mm 1 m/s 709 mmHg 66%
    21:00 +19°C° 0,1 mm 1 m/s 710 mmHg 70%
    22:00 +18°C° 0,1 mm 1 m/s 710 mmHg 75%
    23:00 +18°C° 0,2 mm 1 m/s 710 mmHg 79%

    Mâine, 25 Noiembrie, Sâmbătă

    Timp Temperatura Precipitaţii Vânt Presiune Umiditate
    00:00 +16°C° 0,2 mm 1 m/s 710 mmHg 83%
    01:00 +15°C° 0,2 mm 1 m/s 709 mmHg 86%
    02:00 +15°C° 0,1 mm 1 m/s 709 mmHg 87%
    03:00 +15°C° 0,1 mm 1 m/s 709 mmHg 88%
    04:00 +15°C° 0,1 mm 1 m/s 709 mmHg 88%
    05:00 +18°C° 0 mm 1 m/s 710 mmHg 80%
    06:00 +20°C° 0 mm 1 m/s 710 mmHg 72%
    07:00 +20°C° 0 mm 0 m/s 711 mmHg 65%
    08:00 +25°C° 0 mm 1 m/s 711 mmHg 54%
    09:00 +27°C° 0 mm 1 m/s 711 mmHg 44%
    10:00 +30°C° 0 mm 1 m/s 712 mmHg 34%
    11:00 +30°C° 0 mm 1 m/s 711 mmHg 33%
    12:00 +31°C° 0 mm 1 m/s 711 mmHg 33%
    13:00 +31°C° 0 mm 1 m/s 710 mmHg 32%
    14:00 +30°C° 0 mm 1 m/s 710 mmHg 36%
    15:00 +29°C° 0 mm 2 m/s 710 mmHg 39%
    16:00 +28°C° 0 mm 2 m/s 709 mmHg 43%
    17:00 +26°C° 0,2 mm 2 m/s 709 mmHg 51%
    18:00 +24°C° 0,2 mm 2 m/s 709 mmHg 59%
    19:00 +21°C° 0,2 mm 2 m/s 710 mmHg 66%
    20:00 +21°C° 1 mm 1 m/s 710 mmHg 74%
    21:00 +19°C° 1 mm 1 m/s 710 mmHg 82%
    22:00 +18°C° 1 mm 1 m/s 710 mmHg 89%
    23:00 +18°C° 0,1 mm 1 m/s 710 mmHg 89%

    Poimâine, 26 Noiembrie, Duminică

    Timp Temperatura Precipitaţii Vânt Presiune Umiditate
    00:00 +16°C° 0,1 mm 1 m/s 710 mmHg 89%
    01:00 +16°C° 0,1 mm 1 m/s 709 mmHg 89%
    02:00 +16°C° 0 mm 1 m/s 709 mmHg 89%
    03:00 +15°C° 0 mm 1 m/s 709 mmHg 89%
    04:00 +15°C° 0 mm 1 m/s 708 mmHg 89%
    05:00 +16°C° 0 mm 1 m/s 709 mmHg 82%
    06:00 +19°C° 0 mm 1 m/s 709 mmHg 76%
    07:00 +21°C° 0 mm 1 m/s 710 mmHg 69%
    08:00 +23°C° 0 mm 1 m/s 710 mmHg 57%
    09:00 +26°C° 0 mm 1 m/s 710 mmHg 45%
    10:00 +29°C° 0 mm 2 m/s 710 mmHg 34%
    11:00 +30°C° 0 mm 2 m/s 710 mmHg 32%
    12:00 +31°C° 0 mm 2 m/s 710 mmHg 30%
    13:00 +32°C° 0 mm 2 m/s 709 mmHg 28%
    14:00 +31°C° 0 mm 2 m/s 709 mmHg 30%
    15:00 +31°C° 0 mm 2 m/s 709 mmHg 31%
    16:00 +30°C° 0 mm 3 m/s 708 mmHg 32%
    17:00 +28°C° 0,4 mm 2 m/s 708 mmHg 44%
    18:00 +25°C° 0,4 mm 2 m/s 708 mmHg 56%
    19:00 +21°C° 0,4 mm 2 m/s 708 mmHg 68%
    20:00 +20°C° 0,3 mm 2 m/s 708 mmHg 74%
    21:00 +20°C° 0,3 mm 1 m/s 708 mmHg 79%
    22:00 +19°C° 0,3 mm 1 m/s 708 mmHg 85%
    23:00 +19°C° 0,5 mm 1 m/s 708 mmHg 88%

    27 Noiembrie, Luni

    Timp Temperatura Precipitaţii Vânt Presiune Umiditate
    00:00 +19°C° 0,5 mm 1 m/s 708 mmHg 90%
    01:00 +18°C° 0,5 mm 1 m/s 708 mmHg 93%
    02:00 +18°C° 0,6 mm 1 m/s 708 mmHg 94%
    03:00 +18°C° 0,6 mm 1 m/s 708 mmHg 95%
    04:00 +18°C° 0,6 mm 1 m/s 708 mmHg 96%
    05:00 +19°C° 0,4 mm 1 m/s 708 mmHg 95%
    06:00 +19°C° 0,4 mm 1 m/s 708 mmHg 94%
    07:00 +19°C° 0,4 mm 1 m/s 708 mmHg 94%
    08:00 +21°C° 0,3 mm 1 m/s 709 mmHg 87%
    09:00 +21°C° 0,3 mm 2 m/s 709 mmHg 81%
    10:00 +23°C° 0,3 mm 2 m/s 709 mmHg 75%
    11:00 +25°C° 0,3 mm 2 m/s 709 mmHg 66%
    12:00 +27°C° 0,3 mm 2 m/s 709 mmHg 58%
    13:00 +29°C° 0,3 mm 2 m/s 708 mmHg 49%
    14:00 +28°C° 1,1 mm 2 m/s 708 mmHg 54%
    15:00 +27°C° 1,1 mm 2 m/s 708 mmHg 59%
    16:00 +25°C° 1,1 mm 2 m/s 707 mmHg 63%
    17:00 +24°C° 4,8 mm 2 m/s 708 mmHg 72%
    18:00 +21°C° 4,8 mm 2 m/s 708 mmHg 81%
    19:00 +19°C° 4,8 mm 2 m/s 708 mmHg 89%
    20:00 +18°C° 1,1 mm 2 m/s 709 mmHg 91%
    21:00 +18°C° 1,1 mm 2 m/s 709 mmHg 92%
    22:00 +17°C° 1,1 mm 2 m/s 710 mmHg 94%
    23:00 +17°C° 0 mm 2 m/s 709 mmHg 94%

    28 Noiembrie, Marţi

    Timp Temperatura Precipitaţii Vânt Presiune Umiditate
    00:00 +16°C° 0 mm 1 m/s 709 mmHg 95%
    01:00 +16°C° 0 mm 1 m/s 709 mmHg 96%
    02:00 +15°C° 0 mm 1 m/s 709 mmHg 95%
    03:00 +15°C° 0 mm 1 m/s 709 mmHg 95%
    04:00 +15°C° 0 mm 1 m/s 709 mmHg 94%
    05:00 +16°C° 0 mm 1 m/s 709 mmHg 90%
    06:00 +17°C° 0 mm 0 m/s 710 mmHg 86%
    07:00 +19°C° 0 mm 0 m/s 711 mmHg 81%
    08:00 +23°C° 0 mm 1 m/s 711 mmHg 70%
    09:00 +26°C° 0 mm 1 m/s 711 mmHg 59%
    10:00 +28°C° 0 mm 1 m/s 711 mmHg 48%
    11:00 +29°C° 0,1 mm 1 m/s 711 mmHg 45%
    12:00 +30°C° 0,1 mm 2 m/s 711 mmHg 43%
    13:00 +30°C° 0,1 mm 2 m/s 710 mmHg 40%
    14:00 +30°C° 0,4 mm 2 m/s 710 mmHg 44%
    15:00 +29°C° 0,4 mm 2 m/s 710 mmHg 49%
    16:00 +28°C° 0,4 mm 2 m/s 710 mmHg 53%
    17:00 +26°C° 0,7 mm 2 m/s 710 mmHg 62%
    18:00 +24°C° 0,7 mm 2 m/s 710 mmHg 71%
    19:00 +21°C° 0,7 mm 2 m/s 711 mmHg 80%
    20:00 +20°C° 0,1 mm 2 m/s 711 mmHg 85%
    21:00 +19°C° 0,1 mm 2 m/s 711 mmHg 90%
    22:00 +19°C° 0,1 mm 1 m/s 711 mmHg 95%
    23:00 +19°C° 0 mm 1 m/s 711 mmHg 95%

    29 Noiembrie, Miercuri

    Timp Temperatura Precipitaţii Vânt Presiune Umiditate
    00:00 +19°C° 0 mm 1 m/s 711 mmHg 96%
    01:00 +19°C° 0 mm 1 m/s 711 mmHg 97%
    02:00 +18°C° 0 mm 1 m/s 711 mmHg 97%
    03:00 +18°C° 0 mm 1 m/s 711 mmHg 97%
    04:00 +18°C° 0 mm 1 m/s 711 mmHg 98%
    05:00 +19°C° 0 mm 1 m/s 711 mmHg 93%
    06:00 +20°C° 0 mm 1 m/s 712 mmHg 89%
    07:00 +22°C° 0 mm 1 m/s 712 mmHg 85%
    08:00 +23°C° 0,6 mm 1 m/s 712 mmHg 79%
    09:00 +25°C° 0,6 mm 1 m/s 712 mmHg 74%
    10:00 +26°C° 0,6 mm 2 m/s 712 mmHg 68%
    11:00 +28°C° 0,5 mm 2 m/s 712 mmHg 60%
    12:00 +29°C° 0,5 mm 1 m/s 712 mmHg 51%
    13:00 +31°C° 0,5 mm 1 m/s 711 mmHg 43%
    14:00 +30°C° 0,1 mm 2 m/s 711 mmHg 45%
    15:00 +29°C° 0,1 mm 2 m/s 711 mmHg 47%
    16:00 +29°C° 0,1 mm 3 m/s 710 mmHg 49%
    17:00 +26°C° 0,9 mm 3 m/s 711 mmHg 60%
    18:00 +24°C° 0,9 mm 3 m/s 711 mmHg 71%
    19:00 +21°C° 0,9 mm 2 m/s 711 mmHg 83%
    20:00 +20°C° 0,5 mm 2 m/s 711 mmHg 87%
    21:00 +20°C° 0,5 mm 1 m/s 711 mmHg 91%
    22:00 +19°C° 0,5 mm 1 m/s 711 mmHg 95%
    23:00 +19°C° 0,1 mm 1 m/s 711 mmHg 96%
    Arată mai mult